User: anonymous   Login
Location: Fort Wayne
(41.1310°N, 85.1290°W)
Time: 17:36:13
(UTC-04:00)
Language:

BREEZE-M DEB (TANK) - Orbit

View from above orbital plane
View from above orbital plane
View from above satellite
View from above satellite

Ground track
Ground track

The orbit data is extracted from the following two-line orbital elements,

1 27821U 03024B   16241.16655793  .00003005  00000-0  36516-3 0  9997
2 27821  49.5605 177.3272 4945711 166.5402 214.1280  5.73678826263590
Epoch (UTC): 28 August 2016 03:59:50
Eccentricity: 0.4945711
inclination: 49.5605°
perigee height: 284 km
apogee height: 13322 km
right ascension of ascending node: 177.3272°
argument of perigee: 166.5402°
revolutions per day: 5.73678826
mean anomaly at epoch: 214.1280°
orbit number at epoch: 26359

The dashed part of the orbit path shows where the satellite is in the earth's shadow,  

DLR